CW8014 Weather Reports


time (UTC)temp
C
wind
direction
speed
KPH
gust
KPH
rain 1hr
cm
rain 24hr
cm
rain mn
cm
humidity
%
barometer
mb
20260904131402 17 217 11.3 20.9 0.13 1.04 1.04 95 1008.0
20260904130402 17 175 14.5 29.0 0.15 1.04 1.04 95 1008.0
20260904125402 17 161 8.0 20.9 0.15 1.02 1.02 95 1007.4
20260904124402 17 212 11.3 19.3 0.15 0.99 0.99 95 1007.6
20260904123404 17 242 12.9 24.1 0.13 0.99 0.99 94 1007.8
20260904122402 17 208 6.4 17.7 0.13 0.97 0.97 94 1006.8
20260904121403 17 217 6.4 14.5 0.08 0.91 0.91 94 1007.0
20260904120402 18 205 11.3 30.6 0.08 0.89 0.89 94 1007.2
20260904115403 18 227 6.4 16.1 0.05 0.89 0.89 94 1006.9
20260904113403 19 263 12.9 35.4 0.05 0.86 0.86 95 1007.3
20260904112402 19 223 11.3 25.7 0.05 0.84 0.84 96 1007.2
20260904111404 20 288 11.3 29.0 0.46 0.84 0.84 96 1007.2
20260904110402 20 253 11.3 25.7 0.51 0.81 0.81 96 1007.1
20260904105403 20 267 8.0 22.5 0.51 0.81 0.81 96 1006.8
20260904104402 20 258 9.7 22.5 0.53 0.81 0.81 96 1007.1
20260904102402 19 229 9.7 22.5 0.51 0.79 0.79 95 1007.0
20260904101402 20 308 11.3 30.6 0.10 0.38 0.38 95 1006.7
20260904100402 20 70 9.7 25.7 0.05 0.33 0.33 95 1006.3
20260904095403 20 273 11.3 30.6 0.05 0.33 0.30 94 1006.3
20260904094402 20 240 12.9 24.1 0.03 0.30 0.28 94 1006.3
20260904093402 20 325 9.7 27.4 0.03 0.30 0.28 93 1006.3
20260904092402 20 227 12.9 27.4 0.03 0.30 0.28 92 1006.3
20260904091402 20 195 12.9 33.8 0.03 0.30 0.28 91 1006.3
20260904090402 20 251 11.3 32.2 0.00 0.28 0.25 91 1006.3
20260904085403 20 251 9.7 29.0 0.03 0.28 0.25 92 1006.5
20260904083402 19 257 11.3 27.4 0.03 0.28 0.25 93 1006.6
20260904082407 19 261 11.3 27.4 0.03 0.28 0.25 93 1006.8
20260904081407 19 188 11.3 27.4 0.03 0.28 0.25 93 1006.9
20260904074407 19 209 9.7 22.5 0.00 0.25 0.23 92 1007.1
20260904073407 19 172 9.7 24.1 0.00 0.25 0.23 92 1007.3
20260904072407 19 188 8.0 24.1 0.00 0.25 0.23 93 1007.4
20260904071407 19 131 9.7 30.6 0.00 0.25 0.23 93 1007.6
20260904070407 19 144 9.7 25.7 0.03 0.25 0.23 94 1007.6
20260904065409 19 181 11.3 27.4 0.03 0.25 0.23 95 1007.9
20260904064407 18 290 9.7 32.2 0.05 0.25 0.23 95 1008.0
20260904062407 18 184 9.7 19.3 0.05 0.25 0.23 95 1008.2
20260904061409 18 202 8.0 22.5 0.08 0.25 0.23 95 1008.4
20260904060407 18 142 6.4 16.1 0.05 0.23 0.23 95 1008.5
20260904054407 18 191 8.0 17.7 0.05 0.23 0.20 95 1008.9
20260904053407 18 220 8.0 16.1 0.08 0.23 0.20 95 1008.9
20260904052409 18 167 9.7 22.5 0.15 0.20 0.18 95 1009.0
20260904051407 18 168 8.0 20.9 0.13 0.18 0.15 95 1009.0
20260904045408 18 252 4.8 14.5 0.13 0.18 0.15 95 1009.0
20260904044407 18 222 4.8 12.9 0.13 0.18 0.15 94 1009.2
20260904042407 19 178 6.4 16.1 0.00 0.05 0.05 93 1009.6
20260904040407 19 162 8.0 22.5 0.00 0.05 0.05 92 1009.9
20260904034407 18 178 11.3 19.3 0.00 0.05 0.05 93 1010.2
20260904033407 18 156 6.4 24.1 0.00 0.05 0.05 93 1010.4
20260904032409 18 229 6.4 19.3 0.00 0.05 0.05 94 1010.2
20260904031407 18 150 8.0 25.7 0.00 0.05 0.05 94 1010.5
20260904024407 18 175 6.4 14.5 0.03 0.05 0.05 94 1010.9
20260904023407 18 171 4.8 12.9 0.05 0.05 0.05 94 1011.0
20260904022408 18 142 9.7 22.5 0.05 0.05 0.05 94 1010.9
20260904021407 18 193 6.4 16.1 0.05 0.05 0.05 94 1011.2
20260904020407 18 153 8.0 14.5 0.03 0.05 0.03 94 1011.3
20260904015408 18 180 4.8 12.9 0.03 0.05 0.03 93 1011.5
20260904014407 18 206 6.4 17.7 0.03 0.05 0.03 93 1011.7
20260904013407 18 198 6.4 17.7 0.00 0.03 0.00 93 1012.1
20260904010407 18 163 4.8 11.3 0.00 0.03 0.00 92 1012.4
20260904004407 18 189 8.0 16.1 0.00 0.03 0.00 92 1012.5
20260904003408 18 175 4.8 11.3 0.00 0.03 0.00 92 1012.8
20260904002407 18 192 1.6 9.7 0.00 0.03 0.00 92 1013.0
20260904001407 18 178 4.8 11.3 0.00 0.03 0.00 91 1013.0
20260904000407 18 167 4.8 14.5 0.00 0.03 0.00 91 1013.1
20260903234407 18 188 1.6 6.4 0.00 0.03 0.00 91 1013.7
20260903233407 18 215 3.2 12.9 0.00 0.03 0.00 90 1013.9
20260903231407 18 155 4.8 8.0 0.00 0.03 0.00 90 1014.1
20260903225407 18 190 3.2 12.9 0.00 0.03 0.00 91 1014.1
20260903223407 18 240 3.2 11.3 0.00 0.03 0.00 91 1014.5
20260903222408 17 196 1.6 6.4 0.00 0.03 0.00 90 1014.6
20260903221407 18 215 0.0 4.8 0.00 0.03 0.00 90 1014.7
20260903215411 18 205 3.2 8.0 0.00 0.03 0.03 89 1014.7
20260903214409 18 251 3.2 8.0 0.00 0.03 0.03 89 1015.0
20260903212409 18 231 4.8 11.3 0.00 0.03 0.03 88 1015.2
20260903211409 18 221 1.6 4.8 0.00 0.03 0.03 88 1015.1
20260903210410 18 231 4.8 9.7 0.00 0.03 0.03 87 1015.1
20260903205409 18 230 1.6 8.0 0.00 0.03 0.03 87 1015.4
20260903204409 18 197 3.2 8.0 0.00 0.03 0.03 86 1015.3
20260903203409 18 268 3.2 9.7 0.00 0.03 0.03 86 1015.3
20260903202410 18 220 4.8 16.1 0.00 0.03 0.03 85 1015.2
20260903201409 18 242 3.2 8.0 0.00 0.03 0.03 85 1015.5
20260903200409 18 226 3.2 11.3 0.00 0.03 0.03 85 1015.5
20260903195409 18 249 4.8 11.3 0.00 0.03 0.03 85 1015.6
20260903194409 17 248 3.2 8.0 0.00 0.03 0.03 85 1015.4
20260903193409 17 226 3.2 6.4 0.00 0.03 0.03 84 1015.5
20260903190410 18 243 4.8 12.9 0.00 0.03 0.03 83 1015.5
20260903185409 18 204 3.2 9.7 0.00 0.03 0.03 82 1015.7
20260903184409 18 279 4.8 11.3 0.00 0.03 0.03 81 1015.4
20260903183409 18 246 4.8 12.9 0.00 0.03 0.03 81 1015.5
20260903182409 19 250 6.4 20.9 0.00 0.03 0.03 80 1015.2
20260903181409 19 250 6.4 14.5 0.00 0.03 0.03 80 1015.3
20260903180409 19 282 4.8 11.3 0.00 0.03 0.03 81 1015.4
20260903174409 20 288 4.8 11.3 0.00 0.03 0.03 80 1015.2
20260903172411 20 304 8.0 19.3 0.00 0.03 0.03 78 1015.4
20260903171409 20 271 8.0 19.3 0.00 0.03 0.03 78 1015.1
20260903165410 20 281 11.3 24.1 0.00 0.03 0.03 77 1015.0
20260903164409 20 226 9.7 25.7 0.00 0.03 0.03 77 1015.0
20260903163409 20 262 11.3 19.3 0.00 0.03 0.03 77 1015.0
20260903162409 21 271 12.9 27.4 0.00 0.03 0.03 76 1015.0
20260903161409 21 296 8.0 17.7 0.00 0.03 0.03 77 1015.0
20260903160409 21 327 12.9 32.2 0.00 0.03 0.03 75 1015.0
20260903155411 21 263 14.5 33.8 0.00 0.03 0.03 73 1014.9
20260903154410 21 287 12.9 32.2 0.00 0.03 0.03 75 1014.6
20260903153410 21 281 16.1 30.6 0.00 0.03 0.03 73 1014.7